Location: ??????
(56.0120°N, 39.1740°E)
Time: 10:47:53
(UTC+00:00)

Cosmos 1862 - Pass Details

Date: 14 April 2026
Orbit: 464 x 478 km, 82.5° (Epoch: 19 May)

Event Time Altitude Azimuth Distance (km) Brightness Sun altitude
Rises 18:46:41 0° 355° (N) 2,553 7.7 -16.8°
Reaches altitude 10° 18:49:04 10° 9° (N) 1,667 6.3 -17.0°
Maximum altitude 18:52:07 25° 66° (ENE) 1,008 4.5 -17.3°
Enters shadow 18:52:41 24° 82° (E) 1,036 4.4 -17.3°
